Zurück zum Katalog

TANSUO 1

AktivWissenschaftPO
NORAD 28220·PAYLOAD·🇨🇳 China

Gestartet Apr 18, 2004 von Xichang Satellite Launch Center

Loading…

Nächste Überflüge (nächste 24 Stunden)

TLE

AktuellSource: Space-Track

Epoche: Sep 14, 2026, 05:46 UTC

1 28220U 04012A   26257.24093774  .00011123  00000-0  32106-3 0  9992
2 28220  97.8639 341.2122 0006311  70.7733 289.4191 15.35854611224754

Verfolge TANSUO 1 in Echtzeit mit AllMySat

Download on the App Store